Regional Weather Roundup
Issued by NWS Sioux Falls, SD

Home | Current Version | Previous Version | Text Only | Print | Product List | Glossary Off
Versions: 1 2 3 4 5 6 7 8 9 10 11 12 13 14 15 16 17 18 19 20 21 22 23 24 25 26 27 28 29 30 31 32 33 34 35 36 37 38 39 40 41 42 43 44 45 46 47 48 49 50

583
ASUS43 KFSD 170910
RWRFSD

WEATHER ROUNDUP FOR SE SOUTH DAKOTA/SW MINNESOTA/NW IOWA
NATIONAL WEATHER SERVICE SIOUX FALLS SD
400 AM CDT THU AUG 17 2017

NOTE: "FAIR" INDICATES FEW OR NO CLOUDS BELOW 12,000 FEET WITH NO
SIGNIFICANT WEATHER AND OR OBSTRUCTIONS TO VISIBILITY.


SDZ038>040-050-052>070-171000-
SOUTHEAST SOUTH DAKOTA

CITY           SKY/WX    TMP DP  RH WIND       PRES   REMARKS
BROOKINGS      CLOUDY    64  61  90 NW18      29.76R
CHAMBERLAIN    CLEAR     59  58  95 W8        29.90R
HURON          CLEAR     57  56  96 NW10      29.83S
MADISON        CLOUDY    63  63 100 NW16G25   29.78S
MITCHELL       CLEAR     59  58  96 W9        29.84R
SIOUX FALLS    CLOUDY    66  66 100 NW15      29.76R
WINNER         FAIR      58  51  78 SW8       29.93S
$$

MNZ071-072-080-081-089-090-097-098-171000-
SOUTHWEST MINNESOTA

CITY           SKY/WX    TMP DP  RH WIND       PRES   REMARKS
FAIRMONT       CLOUDY    67  63  87 W16       29.65R
JACKSON        CLOUDY    64  61  88 W15       29.68R
LUVERNE        CLOUDY    64  61  88 NW13G21   29.73S
MARSHALL       LGT RAIN  65  63  93 NW20G25   29.67S
MONTEVIDEO     DRIZZLE   64  64 100 N12G18    29.66R
PIPESTONE      LGT RAIN  64  63  94 NW16G22   29.74S
REDWOOD FALLS  RAIN      65  63  93 NW22G31   29.60R
TRACY          LGT RAIN  65  65  98 NW15G22   29.68R
WINDOM         CLOUDY    64  63  94 W16G24    29.66R
WORTHINGTON    CLOUDY    64  63  94 NW13      29.71S
$$

IAZ001>003-012>014-020>022-031-032-NEZ013-014-SDZ071-171000-
NORTHWEST IOWA

CITY           SKY/WX    TMP DP  RH WIND       PRES   REMARKS
DENISON        CLOUDY    66  64  94 W9G15     29.80S
ESTHERVILLE    CLOUDY    65  64  97 W13G22    29.67S
LE MARS        CLOUDY    66  64  94 W10G16    29.77S
ORANGE CITY    CLOUDY    66  66 100 W10       29.76R
SHELDON        CLOUDY    66  64  94 W12       29.72S
SIOUX CITY     CLOUDY    67  65  93 W9        29.78S
SPENCER        CLOUDY    66  64  93 W10       29.71S
STORM LAKE     CLOUDY    66  64  94 W9G15     29.74S
$$

ABBREVIATIONS USED IN REMARKS
   TC - TEMPERATURE IN CELSIUS
  WCI - WIND CHILL INDEX
   HX - HEAT INDEX
  VSB - VISIBILITY





USA.gov is the U.S. government's official web portal to all federal, state and local government web resources and services.